ONEWEB-0679, 56715

Orbit data source: Space-Track

ONEWEB-0679, 56715 is a payload satellite owned by One Web (NAA) (UK) in LEO that was launched on Sat, 20 May 2023 UTC via an FALCON 9 launch vehicle from the Air Force Western Test Range (AFWTR). Payloads include a variety of satellites, spacecraft, and rockets equipped with specific instruments for various scientific and technological missions. These include communications satellites like Starlink; space stations such as the ISS; scientific satellites like the Hubble; Earth observation satellites from companies like Planet Labs, Umbra, and HawkEye 360; GPS; miniature CubeSats for education and research; and military/defense satellites.

Loading next visibility...
ONEWEB-0679 details
Identifier
56715, 2023-068F
Orbit
LEO
Last TLE update17 hours ago
Origin
Flag of UKOne Web (NAA) (UK)
ManufacturerOne Web
MissionOperational Commercial Communications
Bus & MotorARROW, Unknown motor
Mass148 kg wet, ~140 kg dry
Launch date (UTC)
2023-05-20 (2 years ago)
Launch vehicle
FALCON 9
Launch site
Air Force Western Test Range (AFWTR)
Object type
Payload
Rocket body
Debris
Shape & HBRTrap Box + 2 Pan, 5 m
Radar Cross Section2.032 m², Large (>1 m²)

Expand to show TLE details & history

TLE from 17 hours ago
0 ONEWEB-0679
1 56715U 23068F   25014.95470484  .00000034  00000-0  54413-4 0  9994
2 56715  87.9109 332.0383 0002151  66.5769 293.5588 13.16593995 84238
Epoch: 2025-01-14T22:54Z
Definitive object data (Epoch: 2025-01-14T22:54:46.498Z)
Latitude-0°
Longitude-126.30943°
Altitude1,200.003 km
Speed7.254 km/s
True Right ascension22h 08m 09s
True Declination0° 00' 00"
Sunlit
Object was in daylight at TLE epoch
Visualization TLE readout
Latitude18.75866°
Longitude-125.73979°
Altitude1,199.027 km
Speed7.256 km/s
Apparent Right ascension00h 26m 21s
Apparent Declination-10° 38' 44"
Sunlit
Object is in daylight
Visualization observer readout
Local Sidereal Time16:06:13
Azimuth74.689° E
Elevation-33.452°
Doppler factor1
Orbital elements
Apogee altitude1,196.497 km
Perigee altitude1,193.239 km
Semi-major axis7,573.005 km
Eccentricity0.0002151
Inclination87.9109°
RAAN332.0383°
Arg. of periapsis66.5769°
True anomaly293.5362°
Mean anomaly293.5588°
Eccentric anomaly293.5475°
Mean motion3.29337 °/min
BSTAR0.000054413
Orbital period109.31 mins
Loading maneuver chart data...
Loading historical data...
Loading historical data...
Loading historical data...
Loading historical data...
Loading historical data...
Loading historical data...
Loading historical data...

ONEWEB-0679 Visibility forecast

Observer location: undefined°, undefined

Span
Click to sort rows by Start time (UTC) header in descending order
Start Az.
Max El. time (UTC)
Max El. Az.
Max El.
End time (UTC)
End Az.
13 mins2025-01-15 20:53:22.079Z158.646° S2025-01-15 21:00:22.079Z79.544° E39.123°2025-01-15 21:06:22.079Z11.606° NNE
10 mins2025-01-15 22:45:22.079Z234.794° WSW2025-01-15 22:50:22.079Z286.863° WNW23.773°2025-01-15 22:55:22.079Z334.12° NNW
12 mins2025-01-16 08:21:22.079Z17.986° NNE2025-01-16 08:27:22.079Z90.535° ESE33.343°2025-01-16 08:33:22.079Z150.29° SSE
11 mins2025-01-16 10:11:22.079Z334.91° NNW2025-01-16 10:16:22.079Z278.298° WNW29.565°2025-01-16 10:22:22.079Z219.635° SW
|